{"data":{"norad_id":66394,"intl_designator":"2025-257Q","name":"STARLINK-35672","alt_names":[],"object_type":"PAYLOAD","status":"ACTIVE","operator":null,"country":"US","launch_date":"2025-11-09","launch_site_code":"AFETR","launch_vehicle":null,"mission":null,"orbit_class":"UNKNOWN","rcs_meters":null,"size_class":null,"mass_kg":null,"dimensions":null,"purposes":["comms"],"wikipedia_slug":null,"has_3d_model":false,"image_url":null,"decayed_at":null,"tle_current":{"epoch":"2026-05-24T17:02:08.406528Z","epoch_age_seconds":103687,"freshness":"FRESH","line1":"1 66394U 25257Q   26144.70981952  .00014329  00000+0  43442-3 0  9995","line2":"2 66394  53.1585 223.1296 0001144  82.7974 277.3159 15.34399535 31385","mean_motion":15.34399535,"eccentricity":0.0001144,"inclination_deg":53.1585,"raan_deg":223.1296,"arg_perigee_deg":82.7974,"mean_anomaly_deg":277.3159,"bstar":0.00043442,"rev_number":3138,"period_min":93.847786521911,"perigee_km":461.92203000386,"apogee_km":463.48721456704,"semimajor_km":6840.8416222854,"source":"CELESTRAK","updated_at":"2026-05-25T13:38:21.203235Z"}}}